Location: Plainartige
(45.6866°N, 1.7993°E)
Time: 12:25:36
(UTC+00:00)

CSL-04 Rocket - Pass Details

Date: 03 March 2021
Orbit: 805 x 861 km, 98.9° (Epoch: 11 April)

Event Time Altitude Azimuth Distance (km) Brightness Sun altitude
Rises 18:21:44 0° 146° (SE) 3,425 6.5 -7.6°
Reaches altitude 10° 18:24:10 10° 140° (SE) 2,491 5.8 -8.1°
Maximum altitude 18:29:27 48° 68° (ENE) 1,114 4.0 -9.0°
Drops below altitude 10° 18:34:43 10° 356° (N) 2,485 6.2 -9.9°
Sets 18:37:09 0° 351° (N) 3,418 7.0 -10.3°
